EW4329 Weather Reports


time (UTC)temp
C
wind
direction
speed
KPH
gust
KPH
rain 1hr
cm
rain 24hr
cm
rain mn
cm
humidity
%
barometer
mb
20260502234520 17 74 3.2 11.3 0.00 0.00 0.00 38 1012.0
20260502233020 17 55 11.3 17.7 0.00 0.00 0.00 37 1012.1
20260502231520 17 39 6.4 12.9 0.00 0.00 0.00 34 1012.1
20260502230018 17 69 3.2 11.3 0.00 0.00 0.00 35 1012.1
20260502224520 18 340 6.4 14.5 0.00 0.00 0.00 35 1012.1
20260502223026 18 280 11.3 22.5 0.00 0.00 0.00 35 1012.2
20260502221513 18 231 11.3 20.9 0.00 0.00 0.00 31 1012.4
20260502220011 17 28 8.0 14.5 0.00 0.00 0.00 30 1012.7
20260502214509 17 92 6.4 16.1 0.00 0.00 0.00 33 1012.9
20260502213006 17 62 8.0 12.9 0.00 0.00 0.00 38 1013.2
20260502211504 17 3 3.2 9.7 0.00 0.00 0.00 37 1013.4
20260502210003 17 66 9.7 14.5 0.00 0.00 0.00 36 1013.6
20260502204501 16 101 6.4 12.9 0.00 0.00 0.00 35 1013.9
20260502203105 16 30 8.0 16.1 0.00 0.00 0.00 36 1013.8
20260502201559 18 20 8.0 19.3 0.00 0.00 0.00 34 1013.8
20260502200124 17 356 6.4 29.0 0.00 0.00 0.00 32 1013.8
20260502194553 17 262 14.5 20.9 0.00 0.00 0.00 33 1014.2
20260502193052 17 293 8.0 17.7 0.00 0.00 0.00 33 1014.5
20260502191558 16 276 8.0 20.9 0.00 0.00 0.00 36 1014.7
20260502190050 17 290 8.0 16.1 0.00 0.00 0.00 33 1015.0
20260502184545 17 319 8.0 16.1 0.00 0.00 0.00 37 1015.1
20260502183043 16 249 4.8 8.0 0.00 0.00 0.00 37 1015.3
20260502181540 16 314 0.0 8.0 0.00 0.00 0.00 44 1015.5
20260502163024 13 94 4.8 12.9 0.00 0.00 0.00 41 1016.5
20260502161520 13 66 4.8 9.7 0.00 0.00 0.00 41 1016.5
20260502151511 9 63 8.0 11.3 0.00 0.00 0.00 53 1017.4
20260502150200 8 59 4.8 9.7 0.00 0.00 0.00 55 1017.8
20260502140116 4 59 3.2 8.0 0.00 0.00 0.00 64 1018.2
20260502123041 0 64 1.6 8.0 0.00 0.00 0.00 78 1018.2
20260502121540 0 67 3.2 9.7 0.00 0.00 0.00 77 1018.1
20260502114533 0 42 4.8 9.7 0.00 0.00 0.00 74 1018.1
20260502113045 0 42 8.0 12.9 0.00 0.00 0.00 75 1018.0
20260502111533 0 51 8.0 11.3 0.00 0.00 0.00 75 1018.0
20260502110035 1 56 1.6 6.4 0.00 0.00 0.00 73 1017.9
20260502104528 1 59 3.2 11.3 0.00 0.00 0.00 73 1017.9
20260502103028 0 73 4.8 11.3 0.00 0.00 0.00 75 1017.9
20260502101527 0 68 6.4 9.7 0.00 0.00 0.00 75 1017.9
20260502091520 0 58 4.8 9.7 0.00 0.00 0.00 75 1017.6
20260502070109 3 81 3.2 6.4 0.00 0.00 0.00 63 1017.4
20260502064605 3 106 3.2 11.3 0.00 0.00 0.00 63 1017.4
20260502063053 3 39 6.4 11.3 0.00 0.00 0.00 63 1017.2
20260502061548 4 51 4.8 9.7 0.00 0.00 0.00 62 1017.2
20260502060044 4 115 6.4 14.5 0.00 0.00 0.00 63 1017.1
20260502054545 4 55 6.4 12.9 0.00 0.00 0.00 63 1017.1
20260502053043 5 45 6.4 9.7 0.00 0.00 0.00 62 1017.1
20260502051543 5 64 4.8 8.0 0.00 0.00 0.00 60 1017.1
20260502050042 6 75 4.8 9.7 0.00 0.00 0.00 59 1017.1
20260502044541 6 87 1.6 8.0 0.00 0.00 0.00 59 1017.1
20260502043042 6 74 4.8 8.0 0.00 0.00 0.00 59 1017.0
20260502041553 6 85 1.6 4.8 0.00 0.00 0.00 60 1017.0
20260502040039 6 92 0.0 3.2 0.00 0.00 0.00 59 1016.9
20260502034539 6 90 0.0 3.2 0.00 0.00 0.00 58 1016.8
20260502033039 7 97 1.6 6.4 0.00 0.00 0.00 57 1016.6
20260502031537 7 74 0.0 3.2 0.00 0.00 0.00 56 1016.4
20260502030038 8 165 1.6 3.2 0.00 0.00 0.00 52 1016.0
20260502024536 10 95 0.0 3.2 0.00 0.00 0.00 49 1015.7
20260502023051 12 87 1.6 3.2 0.00 0.00 0.00 42 1015.4
20260502021535 15 235 0.0 1.6 0.00 0.00 0.00 33 1015.4
20260502020035 16 236 1.6 6.4 0.00 0.00 0.00 32 1015.3
20260502014536 17 227 3.2 6.4 0.00 0.00 0.00 26 1015.3
20260502013033 18 249 6.4 14.5 0.00 0.00 0.00 25 1015.4
20260502011532 18 227 6.4 11.3 0.00 0.00 0.00 26 1015.5
20260502010035 18 236 6.4 12.9 0.00 0.00 0.00 25 1015.6
20260502004531 18 218 4.8 12.9 0.00 0.00 0.00 24 1015.7
20260502003028 18 200 8.0 14.5 0.00 0.00 0.00 24 1015.8
20260502001527 18 246 6.4 17.7 0.00 0.00 0.00 25 1015.8
20260502000041 18 255 11.3 16.1 0.00 0.00 0.00 25 1015.9